Change the Weather History Date:

Saturday, November 2, 2013

  Actual Average (KGEV) Record (KGEV)
Temperature  
Mean Temperature 52 °F -  
Max Temperature 59 °F 62 °F 77 °F (1971)
Min Temperature 46 °F 37 °F 17 °F (1993)
Degree Days  
Heating Degree Days 13    
Growing Degree Days 2 (Base 50)    
Moisture  
Dew Point 38 °F    
Average Humidity 63    
Maximum Humidity 92    
Minimum Humidity 35    
Precipitation  
Precipitation 0.00 in - - ()
Sea Level Pressure  
Sea Level Pressure 29.88 in    
Wind  
Wind Speed 5 mph (West)    
Max Wind Speed 20 mph    
Max Gust Speed 29 mph    
Visibility 10 miles    
Events      
Averages and records for this station are not official NWS values.
T = Trace of Precipitation, MM = Missing Value Source: NWS Daily Summary

Daily Weather History Graph

Daily Weather History Graph

Search for Another Location

Airport or City:

Trip Planner

Search our weather history database for the weather conditions in past years. The results will help you decide how hot, cold, wet, or windy it might be!

Date:

Astronomy

Nov. 02, 2013 Rise Set
Actual Time 7:50 AM EDT 6:26 PM EDT
Civil Twilight 7:23 AM EDT 6:53 PM EDT
Nautical Twilight 6:52 AM EDT 7:24 PM EDT
Astronomical Twilight 6:22 AM EDT 7:54 PM EDT
Moon 6:47 AM EDT 5:56 PM EDT
Length of Visible Light 11h 30m
Length of Day
10h 36m
Waning Crescent, 1% of the Moon is Illuminated
Nov 2
Waning Crescent
Nov 3
New
Nov 10
First Quarter
Nov 17
Full
Nov 25
Last Quarter

Hourly Weather History & Observations

Time (EDT) Temp. Dew Point Humidity Pressure Visibility Wind Dir Wind Speed Gust Speed Precip Events Conditions
12:15 AM 53.6 °F 43.9 °F 70% 29.82 in 10.0 mi Calm Calm - N/A   Mostly Cloudy
12:35 AM 53.8 °F 43.2 °F 67% 29.82 in 10.0 mi Calm Calm - N/A   Overcast
12:55 AM 53.8 °F 43.0 °F 67% 29.82 in 10.0 mi Calm Calm - N/A   Overcast
1:15 AM 52.5 °F 43.9 °F 72% 29.81 in 10.0 mi Calm Calm - N/A   Mostly Cloudy
1:35 AM 50.7 °F 44.6 °F 80% 29.81 in 10.0 mi Calm Calm - N/A   Overcast
1:55 AM 51.6 °F 45.0 °F 78% 29.81 in 10.0 mi Calm Calm - N/A   Overcast
2:15 AM 51.1 °F 45.0 °F 80% 29.81 in 10.0 mi Calm Calm - N/A   Overcast
2:35 AM 51.1 °F 45.0 °F 80% 29.82 in 10.0 mi Calm Calm - N/A   Mostly Cloudy
2:55 AM 50.2 °F 45.0 °F 82% 29.82 in 10.0 mi Calm Calm - N/A   Scattered Clouds
3:15 AM 48.9 °F 44.6 °F 85% 29.82 in 10.0 mi Calm Calm - N/A   Clear
3:35 AM 48.9 °F 44.6 °F 85% 29.82 in 10.0 mi Calm Calm - N/A   Clear
3:55 AM 47.8 °F 44.2 °F 87% 29.82 in 10.0 mi Calm Calm - N/A   Clear
4:15 AM 46.8 °F 43.9 °F 90% 29.82 in 10.0 mi Calm Calm - N/A   Clear
4:35 AM 47.1 °F 44.4 °F 90% 29.82 in 10.0 mi Calm Calm - N/A   Clear
4:55 AM 46.9 °F 44.2 °F 90% 29.82 in 10.0 mi WSW 5.8 mph - N/A   Scattered Clouds
5:15 AM 47.3 °F 44.6 °F 90% 29.82 in 10.0 mi West 5.8 mph - N/A   Scattered Clouds
5:35 AM 46.9 °F 44.6 °F 92% 29.83 in 10.0 mi WSW 5.8 mph - N/A   Scattered Clouds
5:55 AM 47.1 °F 44.8 °F 92% 29.83 in 10.0 mi West 4.6 mph - N/A   Scattered Clouds
6:15 AM 47.7 °F 44.6 °F 89% 29.83 in 10.0 mi WSW 6.9 mph - N/A   Scattered Clouds
6:35 AM 48.0 °F 45.0 °F 89% 29.83 in 10.0 mi WSW 6.9 mph - N/A   Mostly Cloudy
6:55 AM 48.4 °F 44.8 °F 87% 29.84 in 10.0 mi SW 6.9 mph - N/A   Overcast
7:15 AM 48.4 °F 44.6 °F 87% 29.84 in 10.0 mi SW 8.1 mph - N/A   Mostly Cloudy
7:35 AM 47.5 °F 44.1 °F 88% 29.84 in 10.0 mi SW 4.6 mph - N/A   Overcast
7:55 AM 47.3 °F 43.9 °F 88% 29.85 in 10.0 mi SW 3.5 mph - N/A   Scattered Clouds
8:15 AM 47.7 °F 43.9 °F 87% 29.86 in 10.0 mi Calm Calm - N/A   Clear
8:35 AM 48.6 °F 43.9 °F 84% 29.86 in 10.0 mi Calm Calm - N/A   Clear
8:55 AM 49.5 °F 43.9 °F 81% 29.86 in 10.0 mi SW 4.6 mph - N/A   Clear
9:15 AM 50.9 °F 44.4 °F 78% 29.86 in 10.0 mi WSW 8.1 mph - N/A   Clear
9:35 AM 52.0 °F 45.0 °F 77% 29.87 in 10.0 mi WSW 8.1 mph - N/A   Clear
9:55 AM 53.1 °F 44.4 °F 72% 29.88 in 10.0 mi WSW 10.4 mph - N/A   Clear
10:15 AM 53.8 °F 43.2 °F 67% 29.88 in 10.0 mi West 16.1 mph - N/A   Scattered Clouds
10:35 AM 53.8 °F 40.6 °F 61% 29.88 in 10.0 mi West 13.8 mph 25.3 mph N/A   Scattered Clouds
10:55 AM 54.3 °F 39.2 °F 57% 29.87 in 10.0 mi West 19.6 mph 25.3 mph N/A   Scattered Clouds
11:15 AM 54.7 °F 38.5 °F 54% 29.87 in 10.0 mi West 16.1 mph 21.9 mph N/A   Scattered Clouds
11:35 AM 56.3 °F 37.4 °F 49% 29.86 in 10.0 mi West 16.1 mph 28.8 mph N/A   Mostly Cloudy
11:55 AM 57.6 °F 37.6 °F 47% 29.87 in 10.0 mi West 11.5 mph 23.0 mph N/A   Mostly Cloudy
1:15 PM 56.7 °F 34.7 °F 44% 29.85 in 10.0 mi West 15.0 mph 25.3 mph N/A   Mostly Cloudy
1:35 PM 56.1 °F 35.1 °F 45% 29.85 in 10.0 mi WNW 12.7 mph 27.6 mph N/A   Mostly Cloudy
1:55 PM 55.0 °F 34.3 °F 46% 29.84 in 10.0 mi West 12.7 mph 19.6 mph N/A   Mostly Cloudy
2:15 PM 57.6 °F 36.5 °F 45% 29.84 in 10.0 mi West 15.0 mph 19.6 mph N/A   Overcast
2:35 PM 56.1 °F 36.0 °F 47% 29.84 in 10.0 mi WSW 16.1 mph 21.9 mph N/A   Mostly Cloudy
2:55 PM 56.5 °F 37.9 °F 50% 29.84 in 10.0 mi WSW 9.2 mph - N/A   Overcast
3:15 PM 57.9 °F 37.0 °F 46% 29.85 in 10.0 mi West 11.5 mph 17.3 mph N/A   Overcast
3:35 PM 55.6 °F 35.6 °F 47% 29.85 in 10.0 mi West 9.2 mph 20.7 mph N/A   Overcast
3:55 PM 56.5 °F 31.8 °F 39% 29.84 in 10.0 mi West 17.3 mph 21.9 mph N/A   Scattered Clouds
4:15 PM 58.1 °F 30.6 °F 35% 29.85 in 10.0 mi WNW 10.4 mph 27.6 mph N/A   Mostly Cloudy
4:35 PM 57.0 °F 30.4 °F 36% 29.86 in 10.0 mi WNW 11.5 mph 24.2 mph N/A   Mostly Cloudy
4:55 PM 56.5 °F 30.9 °F 38% 29.86 in 10.0 mi West 11.5 mph 23.0 mph N/A   Scattered Clouds
5:15 PM 55.8 °F 30.6 °F 38% 29.87 in 10.0 mi West 16.1 mph 25.3 mph N/A   Scattered Clouds
5:35 PM 55.2 °F 30.6 °F 39% 29.88 in 10.0 mi WNW 15.0 mph 24.2 mph N/A   Scattered Clouds
5:55 PM 53.6 °F 30.0 °F 41% 29.89 in 10.0 mi WNW 15.0 mph 25.3 mph N/A   Clear
6:15 PM 52.9 °F 30.4 °F 42% 29.89 in 10.0 mi WNW 12.7 mph 17.3 mph N/A   Clear
6:35 PM 52.3 °F 29.3 °F 41% 29.90 in 10.0 mi WNW 11.5 mph - N/A   Clear
6:55 PM 52.0 °F 28.4 °F 40% 29.92 in 10.0 mi West 12.7 mph 20.7 mph N/A   Clear
7:15 PM 51.3 °F 30.0 °F 44% 29.93 in 10.0 mi West 12.7 mph 16.1 mph N/A   Clear
7:35 PM 50.9 °F 30.4 °F 45% 29.94 in 10.0 mi West 9.2 mph 19.6 mph N/A   Clear
7:55 PM 49.8 °F 30.9 °F 48% 29.95 in 10.0 mi West 9.2 mph - N/A   Clear
8:15 PM 49.5 °F 31.1 °F 49% 29.96 in 10.0 mi West 5.8 mph - N/A   Scattered Clouds
8:35 PM 48.2 °F 31.8 °F 53% 29.97 in 10.0 mi West 6.9 mph - N/A   Scattered Clouds
8:55 PM 47.8 °F 32.0 °F 54% 29.98 in 10.0 mi West 6.9 mph - N/A   Scattered Clouds
9:15 PM 47.8 °F 32.2 °F 55% 29.98 in 10.0 mi West 5.8 mph - N/A   Scattered Clouds
9:35 PM 48.4 °F 33.3 °F 56% 30.00 in 10.0 mi West 5.8 mph - N/A   Overcast
9:55 PM 48.9 °F 33.3 °F 55% 30.01 in 10.0 mi West 8.1 mph - N/A   Overcast
10:15 PM 49.1 °F 33.4 °F 55% 30.01 in 10.0 mi West 10.4 mph - N/A   Overcast
10:35 PM 48.4 °F 33.1 °F 56% 30.02 in 10.0 mi WNW 4.6 mph - N/A   Overcast
10:55 PM 49.1 °F 32.9 °F 54% 30.03 in 10.0 mi WNW 6.9 mph - N/A   Overcast
11:15 PM 48.6 °F 34.0 °F 57% 30.03 in 10.0 mi West 8.1 mph - N/A   Overcast
11:35 PM 48.6 °F 33.8 °F 57% 30.04 in 10.0 mi West 5.8 mph - N/A   Overcast
11:55 PM 48.2 °F 34.0 °F 58% 30.04 in 10.0 mi West 6.9 mph - N/A   Overcast